Вернуться в каталог

CZ-6A DEB

АктивенSSO
NORAD 55874·DEBRIS·🇨🇳 China

Запущен Nov 11, 2022 с Taiyuan Satellite Launch Center

Loading…

Ближайшие Пролёты (ближайшие 24 часа)

TLE

СвежийSource: Space-Track

Эпоха: Sep 14, 2026, 10:08 UTC

1 55874U 22151ZW  26257.42239613  .00001904  00000-0  98865-3 0  9995
2 55874  98.8381 251.2187 0066756  88.0326 272.8490 14.14784441185421

Отслеживайте CZ-6A DEB в реальном времени с AllMySat

Download on the App Store